Location: Four Corners
(38.2757°N, 122.4608°W)
Time: 05:53:17
(UTC+00:00)

NOSS 0 Rocket - Pass Details

Date: 08 December 2019
Orbit: 934 x 956 km, 70.0° (Epoch: 21 January)

Event Time Altitude Azimuth Distance (km) Brightness Sun altitude
Rises 02:01:50 0° 211° (SSW) 3,593 7.8 -13.9°
Reaches altitude 10° 02:04:22 10° 214° (SSW) 2,655 7.1 -14.4°
Maximum altitude 02:10:29 66° 296° (WNW) 1,032 4.3 -15.5°
Drops below altitude 10° 02:16:41 10° 18° (NNE) 2,684 6.0 -16.7°
Enters shadow 02:17:35 - 20° (NNE) 3,010 6.2 -16.8°
